TimeCDT,TemperatureF,Dew PointF,Humidity,Sea Level PressureIn,VisibilityMPH,Wind Direction,Wind SpeedMPH,Gust SpeedMPH,PrecipitationIn,Events,Conditions,WindDirDegrees,DateUTC
12:52 AM,86.0,64.0,48,29.85,10.0,East,9.2,-,N/A,,Clear,90,2013-06-29 05:52:00
1:52 AM,82.9,64.9,54,29.85,10.0,ESE,4.6,-,N/A,,Clear,120,2013-06-29 06:52:00
2:52 AM,80.1,64.9,60,29.86,10.0,SE,6.9,-,N/A,,Clear,130,2013-06-29 07:52:00
3:52 AM,81.0,64.0,56,29.86,10.0,East,5.8,-,N/A,,Clear,100,2013-06-29 08:52:00
4:52 AM,77.0,64.9,66,29.86,10.0,SSE,4.6,-,N/A,,Clear,160,2013-06-29 09:52:00
5:52 AM,78.1,64.0,62,29.87,10.0,ENE,3.5,-,N/A,,Clear,70,2013-06-29 10:52:00
6:52 AM,75.9,64.0,67,29.88,10.0,Calm,Calm,-,N/A,,Clear,0,2013-06-29 11:52:00
7:52 AM,75.9,66.9,74,29.88,10.0,Calm,Calm,-,N/A,,Clear,0,2013-06-29 12:52:00
8:52 AM,80.1,68.0,67,29.89,10.0,South,3.5,-,N/A,,Clear,170,2013-06-29 13:52:00
9:52 AM,86.0,66.9,53,29.90,10.0,Calm,Calm,-,N/A,,Clear,0,2013-06-29 14:52:00
10:52 AM,91.9,69.1,47,29.90,10.0,NNW,5.8,-,N/A,,Clear,340,2013-06-29 15:52:00
11:52 AM,93.9,64.9,38,29.91,10.0,North,10.4,-,N/A,,Clear,350,2013-06-29 16:52:00
12:52 PM,95.0,63.0,34,29.90,10.0,NNW,9.2,-,N/A,,Clear,340,2013-06-29 17:52:00
1:52 PM,96.1,63.0,33,29.86,10.0,ENE,4.6,-,N/A,,Clear,60,2013-06-29 18:52:00
2:52 PM,97.0,61.0,30,29.83,10.0,Variable,3.5,-,N/A,,Clear,0,2013-06-29 19:52:00
3:52 PM,99.0,57.9,25,29.81,10.0,North,6.9,-,N/A,,Clear,360,2013-06-29 20:52:00
4:52 PM,100.9,59.0,25,29.79,10.0,NNE,5.8,-,N/A,,Clear,20,2013-06-29 21:52:00
5:52 PM,100.0,57.9,25,29.77,10.0,North,8.1,-,N/A,,Clear,360,2013-06-29 22:52:00
6:52 PM,100.0,57.0,24,29.76,10.0,NE,6.9,-,N/A,,Clear,40,2013-06-29 23:52:00
7:52 PM,95.0,57.0,28,29.77,10.0,ENE,8.1,-,N/A,,Clear,70,2013-06-30 00:52:00
8:52 PM,91.9,57.9,32,29.78,10.0,East,4.6,-,N/A,,Clear,80,2013-06-30 01:52:00
9:52 PM,89.1,57.0,34,29.80,10.0,East,4.6,-,N/A,,Clear,90,2013-06-30 02:52:00
10:52 PM,87.1,57.9,37,29.80,10.0,East,10.4,-,N/A,,Clear,100,2013-06-30 03:52:00
11:52 PM,86.0,57.0,37,29.82,10.0,North,-9999.0,-,N/A,,Clear,0,2013-06-30 04:52:00